Back to catalog

FENGYUN 1C DEB

AliveLEO
NORAD 30710·DEBRIS·🇨🇳 China

Launched May 10, 1999 from Taiyuan Satellite Launch Center

Loading…

Next Passes (next 24 hours)

TLE

FreshSource: Space-Track

Epoch: Sep 14, 2026, 05:37 UTC

1 30710U 99025ARU 26257.23444742  .00001676  00000-0  10369-2 0  9999
2 30710 102.7498 255.7405 0221298 150.8337 279.3212 13.96130144986318

Track FENGYUN 1C DEB in real time with AllMySat

Download on the App Store